TimeCST,TemperatureF,Dew PointF,Humidity,Sea Level PressureIn,VisibilityMPH,Wind Direction,Wind SpeedMPH,Gust SpeedMPH,PrecipitationIn,Events,Conditions,WindDirDegrees,DateUTC
12:58 AM,30.7,13.5,49,30.16,10.0,NNW,10.4,-,N/A,,Clear,340,2014-01-22 06:58:00
1:58 AM,29.5,12.6,49,30.16,10.0,NW,6.9,-,N/A,,Clear,320,2014-01-22 07:58:00
2:58 AM,28.4,12.6,52,30.17,10.0,NNW,9.2,-,N/A,,Clear,340,2014-01-22 08:58:00
3:58 AM,27.5,13.3,55,30.16,10.0,NNW,10.4,-,N/A,,Clear,330,2014-01-22 09:58:00
4:58 AM,27.1,12.7,55,30.17,10.0,NNW,8.1,-,N/A,,Clear,340,2014-01-22 10:58:00
5:58 AM,26.4,13.1,57,30.22,10.0,NNW,10.4,-,N/A,,Clear,330,2014-01-22 11:58:00
6:58 AM,25.7,12.6,58,30.22,10.0,North,8.1,-,N/A,,Clear,350,2014-01-22 12:58:00
7:58 AM,28.2,12.7,52,30.24,10.0,North,10.4,-,N/A,,Clear,350,2014-01-22 13:58:00
8:55 AM,31.1,10.8,43,30.24,10.0,North,11.5,-,N/A,,Clear,10,2014-01-22 14:55:00
9:55 AM,34.2,9.0,35,30.25,10.0,North,6.9,-,N/A,,Clear,360,2014-01-22 15:55:00
10:56 AM,37.9,4.8,25,30.24,10.0,NW,6.9,-,N/A,,Clear,320,2014-01-22 16:56:00
11:55 AM,41.4,3.7,21,30.17,10.0,NW,5.8,-,N/A,,Partly Cloudy,320,2014-01-22 17:55:00
11:59 AM,41.4,3.7,21,30.17,10.0,NW,5.8,-,N/A,,Partly Cloudy,320,2014-01-22 17:59:00
12:55 PM,44.6,2.3,17,30.16,10.0,NNW,8.1,-,N/A,,Partly Cloudy,340,2014-01-22 18:55:00
1:55 PM,47.7,3.4,16,30.14,10.0,NNW,6.9,-,N/A,,Partly Cloudy,330,2014-01-22 19:55:00
2:55 PM,48.2,5.0,17,30.12,10.0,NW,8.1,-,N/A,,Partly Cloudy,310,2014-01-22 20:55:00
3:55 PM,48.9,7.3,19,30.15,10.0,West,5.8,-,N/A,,Partly Cloudy,280,2014-01-22 21:55:00
4:55 PM,47.1,10.8,23,30.15,10.0,NW,1.2,-,N/A,,Partly Cloudy,320,2014-01-22 22:55:00
5:55 PM,39.7,18.1,42,30.17,10.0,Calm,Calm,-,N/A,,Partly Cloudy,0,2014-01-22 23:55:00
6:55 PM,34.3,21.0,58,30.17,10.0,Calm,Calm,-,N/A,,Partly Cloudy,0,2014-01-23 00:55:00
7:55 PM,32.5,23.2,68,30.19,10.0,South,8.1,-,N/A,,Partly Cloudy,190,2014-01-23 01:55:00
8:55 PM,36.9,22.6,56,30.21,10.0,WSW,4.6,-,N/A,,Partly Cloudy,240,2014-01-23 02:55:00
9:55 PM,30.4,23.2,75,30.22,10.0,Calm,Calm,-,N/A,,Partly Cloudy,0,2014-01-23 03:55:00
10:55 PM,28.6,23.5,81,30.21,10.0,Calm,Calm,-,N/A,,Partly Cloudy,0,2014-01-23 04:55:00
11:55 PM,29.1,24.6,83,30.21,10.0,Calm,Calm,-,N/A,,Scattered Clouds,0,2014-01-23 05:55:00